| time (UTC) | temp F | wind direction | speed knots | gust knots | rain 1hr in | rain 24hr in | rain mn in | humidity % | barometer mb |
| 20260904184356 | 83 | 236 | 2.6 | 2.6 | 0.00 | 0.00 | 0.00 | 80 | 1016.2 |
| 20260904183851 | 83 | 196 | 1.7 | 1.7 | 0.00 | 0.00 | 0.00 | 79 | 1016.2 |
| 20260904183347 | 83 | 220 | 2.6 | 2.6 | 0.00 | 0.00 | 0.00 | 80 | 1016.5 |
| 20260904182842 | 84 | 266 | 0.0 | 0.0 | 0.00 | 0.00 | 0.00 | 82 | 1016.2 |
| 20260904182337 | 85 | 257 | 0.9 | 1.7 | 0.00 | 0.00 | 0.00 | 80 | 1016.2 |
| 20260904181832 | 86 | 262 | 0.0 | 0.9 | 0.00 | 0.00 | 0.00 | 76 | 1016.5 |
| 20260904181332 | 86 | 199 | 2.6 | 2.6 | 0.00 | 0.00 | 0.00 | 70 | 1016.2 |
| 20260904180827 | 86 | 188 | 0.9 | 0.9 | 0.00 | 0.00 | 0.00 | 71 | 1016.5 |
| 20260904180323 | 86 | 252 | 1.7 | 1.7 | 0.00 | 0.00 | 0.00 | 72 | 1016.5 |
| 20260904175822 | 86 | 235 | 0.0 | 0.0 | 0.00 | 0.00 | 0.00 | 71 | 1016.9 |
| 20260904175320 | 86 | 224 | 1.7 | 2.6 | 0.00 | 0.00 | 0.00 | 71 | 1016.5 |
| 20260904174815 | 86 | 225 | 2.6 | 4.3 | 0.00 | 0.00 | 0.00 | 71 | 1016.5 |
| 20260904174311 | 86 | 230 | 0.9 | 0.9 | 0.00 | 0.00 | 0.00 | 73 | 1016.9 |
| 20260904173807 | 86 | 218 | 0.0 | 0.0 | 0.00 | 0.00 | 0.00 | 74 | 1016.5 |
| 20260904173302 | 86 | 269 | 0.0 | 0.0 | 0.00 | 0.00 | 0.00 | 75 | 1016.5 |
| 20260904172758 | 86 | 205 | 1.7 | 1.7 | 0.00 | 0.00 | 0.00 | 74 | 1016.5 |
| 20260904172257 | 86 | 272 | 0.9 | 0.9 | 0.00 | 0.00 | 0.00 | 74 | 1016.9 |
| 20260904171752 | 86 | 252 | 0.0 | 0.0 | 0.00 | 0.00 | 0.00 | 75 | 1016.9 |
| 20260904171247 | 85 | 224 | 0.0 | 0.9 | 0.00 | 0.00 | 0.00 | 76 | 1017.2 |
| 20260904170744 | 85 | 205 | 2.6 | 2.6 | 0.00 | 0.00 | 0.00 | 75 | 1016.9 |
| 20260904170239 | 85 | 185 | 0.9 | 1.7 | 0.00 | 0.00 | 0.00 | 75 | 1016.9 |
| 20260904165738 | 85 | 243 | 1.7 | 1.7 | 0.00 | 0.00 | 0.00 | 75 | 1016.9 |
| 20260904165233 | 85 | 234 | 1.7 | 1.7 | 0.00 | 0.00 | 0.00 | 76 | 1016.9 |
| 20260904164732 | 85 | 196 | 1.7 | 1.7 | 0.00 | 0.00 | 0.00 | 75 | 1017.2 |
| 20260904164228 | 85 | 237 | 0.9 | 0.9 | 0.00 | 0.00 | 0.00 | 77 | 1016.9 |
| 20260904163724 | 84 | 205 | 2.6 | 2.6 | 0.00 | 0.00 | 0.00 | 77 | 1016.9 |
| 20260904163219 | 84 | 198 | 2.6 | 2.6 | 0.00 | 0.00 | 0.00 | 77 | 1016.9 |
| 20260904162718 | 84 | 230 | 3.5 | 5.2 | 0.00 | 0.00 | 0.00 | 77 | 1016.9 |
| 20260904162213 | 85 | 211 | 2.6 | 2.6 | 0.00 | 0.00 | 0.00 | 76 | 1016.5 |
| 20260904161709 | 85 | 243 | 1.7 | 2.6 | 0.00 | 0.00 | 0.00 | 76 | 1016.9 |
| 20260904161203 | 85 | 194 | 2.6 | 5.2 | 0.00 | 0.00 | 0.00 | 76 | 1016.5 |
| 20260904160700 | 85 | 274 | 2.6 | 5.2 | 0.00 | 0.00 | 0.00 | 76 | 1016.5 |
| 20260904160154 | 85 | 215 | 2.6 | 2.6 | 0.00 | 0.00 | 0.00 | 76 | 1016.5 |
| 20260904155649 | 85 | 187 | 1.7 | 1.7 | 0.00 | 0.00 | 0.00 | 77 | 1016.9 |
| 20260904155149 | 85 | 179 | 2.6 | 4.3 | 0.00 | 0.00 | 0.00 | 77 | 1016.5 |
| 20260904154647 | 85 | 225 | 2.6 | 2.6 | 0.00 | 0.00 | 0.00 | 76 | 1016.5 |
| 20260904154142 | 84 | 186 | 2.6 | 2.6 | 0.00 | 0.00 | 0.00 | 77 | 1016.9 |
| 20260904153637 | 84 | 261 | 1.7 | 1.7 | 0.00 | 0.00 | 0.00 | 76 | 1016.5 |
| 20260904153132 | 84 | 242 | 2.6 | 2.6 | 0.00 | 0.00 | 0.00 | 76 | 1016.5 |
| 20260904152629 | 84 | 220 | 0.9 | 1.7 | 0.00 | 0.00 | 0.00 | 78 | 1016.5 |
| 20260904152124 | 83 | 243 | 1.7 | 1.7 | 0.00 | 0.00 | 0.00 | 80 | 1016.2 |
| 20260904151619 | 84 | 217 | 6.1 | 7.0 | 0.00 | 0.00 | 0.00 | 80 | 1016.2 |
| 20260904151117 | 83 | 208 | 2.6 | 4.3 | 0.00 | 0.00 | 0.00 | 82 | 1016.2 |
| 20260904150613 | 83 | 259 | 1.7 | 2.6 | 0.00 | 0.00 | 0.00 | 84 | 1016.2 |
| 20260904150109 | 83 | 272 | 1.7 | 2.6 | 0.00 | 0.00 | 0.00 | 84 | 1016.5 |
| 20260904145607 | 82 | 215 | 1.7 | 2.6 | 0.00 | 0.00 | 0.00 | 84 | 1016.2 |
| 20260904145102 | 82 | 244 | 0.0 | 0.0 | 0.00 | 0.00 | 0.00 | 85 | 1016.2 |
| 20260904144558 | 82 | 256 | 1.7 | 4.3 | 0.00 | 0.00 | 0.00 | 86 | 1016.5 |
| 20260904144054 | 82 | 262 | 0.9 | 0.9 | 0.00 | 0.00 | 0.00 | 86 | 1016.5 |
| 20260904143549 | 81 | 277 | 1.7 | 1.7 | 0.00 | 0.00 | 0.00 | 86 | 1016.2 |
| 20260904143046 | 81 | 237 | 2.6 | 2.6 | 0.00 | 0.00 | 0.00 | 87 | 1016.2 |
| 20260904142542 | 81 | 253 | 0.9 | 0.9 | 0.00 | 0.00 | 0.00 | 88 | 1016.2 |
| 20260904142037 | 81 | 191 | 1.7 | 1.7 | 0.00 | 0.00 | 0.00 | 88 | 1016.2 |
| 20260904141532 | 81 | 221 | 0.0 | 0.9 | 0.00 | 0.00 | 0.00 | 89 | 1016.2 |
| 20260904141028 | 81 | 248 | 0.9 | 1.7 | 0.00 | 0.00 | 0.00 | 89 | 1016.2 |
| 20260904140528 | 81 | 258 | 1.7 | 1.7 | 0.00 | 0.00 | 0.00 | 89 | 1016.2 |
| 20260904140022 | 81 | 217 | 3.5 | 4.3 | 0.00 | 0.00 | 0.00 | 89 | 1016.2 |
| 20260904135521 | 81 | 243 | 3.5 | 5.2 | 0.00 | 0.00 | 0.00 | 89 | 1015.8 |
| 20260904135018 | 81 | 279 | 2.6 | 4.3 | 0.00 | 0.00 | 0.00 | 89 | 1015.8 |
| 20260904134513 | 81 | 244 | 1.7 | 1.7 | 0.00 | 0.00 | 0.00 | 89 | 1016.2 |
| 20260904134007 | 81 | 216 | 1.7 | 2.6 | 0.00 | 0.00 | 0.00 | 88 | 1015.8 |
| 20260904133501 | 81 | 222 | 0.9 | 1.7 | 0.00 | 0.00 | 0.00 | 88 | 1016.2 |
| 20260904132957 | 81 | 194 | 0.9 | 1.7 | 0.00 | 0.00 | 0.00 | 88 | 1016.2 |
| 20260904132458 | 81 | 264 | 0.0 | 0.0 | 0.00 | 0.00 | 0.00 | 88 | 1016.2 |
| 20260904131952 | 81 | 266 | 0.9 | 0.9 | 0.00 | 0.00 | 0.00 | 88 | 1016.2 |
| 20260904131447 | 80 | 247 | 0.0 | 0.0 | 0.00 | 0.00 | 0.00 | 89 | 1016.2 |
| 20260904130943 | 80 | 287 | 0.9 | 1.7 | 0.00 | 0.00 | 0.00 | 89 | 1016.2 |
| 20260904130442 | 80 | 202 | 1.7 | 1.7 | 0.00 | 0.00 | 0.00 | 89 | 1015.8 |
| 20260904125937 | 80 | 218 | 1.7 | 1.7 | 0.00 | 0.00 | 0.00 | 89 | 1015.8 |
| 20260904125433 | 80 | 249 | 0.9 | 1.7 | 0.00 | 0.00 | 0.00 | 89 | 1015.8 |
| 20260904124932 | 80 | 220 | 0.9 | 0.9 | 0.00 | 0.00 | 0.00 | 90 | 1015.5 |
| 20260904124429 | 80 | 221 | 0.9 | 1.7 | 0.00 | 0.00 | 0.00 | 90 | 1015.8 |
| 20260904123924 | 80 | 242 | 0.9 | 0.9 | 0.00 | 0.00 | 0.00 | 89 | 1015.8 |
| 20260904123424 | 80 | 200 | 0.9 | 1.7 | 0.00 | 0.00 | 0.00 | 89 | 1015.5 |
| 20260904122920 | 80 | 178 | 0.9 | 1.7 | 0.00 | 0.00 | 0.00 | 89 | 1015.5 |
| 20260904122420 | 80 | 239 | 0.0 | 0.0 | 0.00 | 0.00 | 0.00 | 89 | 1015.5 |
| 20260904121914 | 80 | 219 | 0.9 | 0.9 | 0.00 | 0.00 | 0.00 | 89 | 1015.5 |
| 20260904121411 | 80 | 238 | 0.9 | 1.7 | 0.00 | 0.00 | 0.00 | 89 | 1015.5 |
| 20260904120907 | 80 | 224 | 0.9 | 0.9 | 0.00 | 0.00 | 0.00 | 89 | 1015.5 |
| 20260904120403 | 80 | 256 | 0.9 | 0.9 | 0.00 | 0.00 | 0.00 | 89 | 1015.2 |
| 20260904115857 | 80 | 204 | 2.6 | 2.6 | 0.00 | 0.00 | 0.00 | 89 | 1015.2 |
| 20260904115352 | 80 | 239 | 0.9 | 0.9 | 0.00 | 0.00 | 0.00 | 89 | 1015.2 |
| 20260904114847 | 80 | 237 | 0.9 | 1.7 | 0.00 | 0.00 | 0.00 | 89 | 1015.2 |
| 20260904114342 | 80 | 223 | 0.9 | 0.9 | 0.00 | 0.00 | 0.00 | 88 | 1015.2 |
| 20260904113837 | 80 | 227 | 1.7 | 1.7 | 0.00 | 0.00 | 0.00 | 88 | 1015.2 |
| 20260904113336 | 80 | 139 | 2.6 | 2.6 | 0.00 | 0.00 | 0.00 | 88 | 1015.2 |
| 20260904112832 | 80 | 202 | 0.9 | 0.9 | 0.00 | 0.00 | 0.00 | 88 | 1015.2 |
| 20260904112327 | 80 | 130 | 0.9 | 1.7 | 0.00 | 0.00 | 0.00 | 88 | 1015.2 |
| 20260904111822 | 80 | 169 | 3.5 | 5.2 | 0.00 | 0.00 | 0.00 | 88 | 1015.2 |
| 20260904111318 | 80 | 187 | 0.9 | 1.7 | 0.00 | 0.00 | 0.00 | 87 | 1015.2 |
| 20260904110814 | 80 | 181 | 2.6 | 4.3 | 0.00 | 0.00 | 0.00 | 88 | 1015.2 |
| 20260904110313 | 80 | 186 | 2.6 | 2.6 | 0.00 | 0.00 | 0.00 | 87 | 1015.2 |
| 20260904105807 | 80 | 157 | 1.7 | 1.7 | 0.00 | 0.00 | 0.00 | 87 | 1015.2 |
| 20260904105305 | 80 | 186 | 1.7 | 1.7 | 0.00 | 0.00 | 0.00 | 87 | 1015.2 |
| 20260904104757 | 80 | 201 | 1.7 | 2.6 | 0.00 | 0.00 | 0.00 | 87 | 1014.8 |
| 20260904104253 | 80 | 114 | 0.9 | 1.7 | 0.00 | 0.00 | 0.00 | 87 | 1014.8 |
| 20260904103749 | 80 | 139 | 2.6 | 4.3 | 0.00 | 0.00 | 0.00 | 87 | 1014.8 |
| 20260904103243 | 80 | 200 | 0.0 | 0.0 | 0.00 | 0.00 | 0.00 | 86 | 1014.8 |
| 20260904102739 | 80 | 178 | 0.9 | 1.7 | 0.00 | 0.00 | 0.00 | 86 | 1015.2 |
| 20260904102235 | 80 | 205 | 0.0 | 0.9 | 0.00 | 0.00 | 0.00 | 86 | 1014.8 |
| 20260904101731 | 80 | 212 | 0.0 | 0.9 | 0.00 | 0.00 | 0.00 | 86 | 1014.8 |
| 20260904101227 | 80 | 198 | 0.0 | 0.0 | 0.00 | 0.00 | 0.00 | 85 | 1014.8 |
| 20260904100722 | 80 | 245 | 0.0 | 0.0 | 0.00 | 0.00 | 0.00 | 85 | 1014.8 |
| 20260904100219 | 80 | 158 | 1.7 | 1.7 | 0.00 | 0.00 | 0.00 | 85 | 1014.8 |
| 20260904095717 | 80 | 166 | 0.9 | 0.9 | 0.00 | 0.00 | 0.00 | 85 | 1014.8 |
| 20260904095212 | 80 | 162 | 0.0 | 0.9 | 0.00 | 0.00 | 0.00 | 85 | 1014.5 |
| 20260904094707 | 80 | 229 | 0.9 | 0.9 | 0.00 | 0.00 | 0.00 | 85 | 1014.8 |
| 20260904094203 | 80 | 262 | 0.9 | 0.9 | 0.00 | 0.00 | 0.00 | 85 | 1014.8 |
| 20260904093659 | 80 | 222 | 0.9 | 1.7 | 0.00 | 0.00 | 0.00 | 85 | 1014.5 |
| 20260904093158 | 80 | 231 | 0.9 | 0.9 | 0.00 | 0.00 | 0.00 | 85 | 1014.5 |
| 20260904092655 | 81 | 245 | 0.0 | 0.9 | 0.00 | 0.00 | 0.00 | 85 | 1014.5 |
| 20260904092150 | 81 | 245 | 0.0 | 0.9 | 0.00 | 0.00 | 0.00 | 84 | 1014.5 |
| 20260904091647 | 81 | 239 | 0.0 | 0.0 | 0.00 | 0.00 | 0.00 | 84 | 1014.5 |
| 20260904091146 | 81 | 225 | 0.9 | 0.9 | 0.00 | 0.00 | 0.00 | 84 | 1014.5 |
| 20260904090642 | 81 | 196 | 1.7 | 1.7 | 0.00 | 0.00 | 0.00 | 84 | 1014.8 |
| 20260904090137 | 81 | 182 | 1.7 | 1.7 | 0.00 | 0.00 | 0.00 | 84 | 1014.5 |
| 20260904085637 | 81 | 213 | 0.9 | 0.9 | 0.00 | 0.00 | 0.00 | 84 | 1014.5 |
| 20260904085132 | 81 | 234 | 0.9 | 0.9 | 0.00 | 0.00 | 0.00 | 84 | 1014.5 |
| 20260904084627 | 81 | 239 | 0.9 | 0.9 | 0.00 | 0.00 | 0.00 | 84 | 1014.5 |
| 20260904084124 | 81 | 216 | 1.7 | 1.7 | 0.00 | 0.00 | 0.00 | 84 | 1014.5 |
| 20260904083620 | 81 | 237 | 0.0 | 0.9 | 0.00 | 0.00 | 0.00 | 83 | 1014.5 |
| 20260904083115 | 81 | 214 | 0.9 | 0.9 | 0.00 | 0.00 | 0.00 | 83 | 1014.5 |
| 20260904082610 | 81 | 257 | 0.0 | 0.0 | 0.00 | 0.00 | 0.00 | 83 | 1014.5 |
| 20260904082106 | 81 | 236 | 0.9 | 0.9 | 0.00 | 0.00 | 0.00 | 83 | 1014.5 |
| 20260904081601 | 81 | 237 | 1.7 | 1.7 | 0.00 | 0.00 | 0.00 | 83 | 1014.5 |
| 20260904081056 | 81 | 233 | 3.5 | 5.2 | 0.00 | 0.00 | 0.00 | 83 | 1014.5 |
| 20260904080552 | 81 | 201 | 0.9 | 0.9 | 0.00 | 0.00 | 0.00 | 83 | 1014.5 |
| 20260904080048 | 81 | 221 | 1.7 | 1.7 | 0.00 | 0.00 | 0.00 | 83 | 1014.5 |
| 20260904075543 | 82 | 238 | 0.9 | 0.9 | 0.00 | 0.00 | 0.00 | 82 | 1014.5 |
| 20260904075038 | 82 | 198 | 0.9 | 0.9 | 0.00 | 0.00 | 0.00 | 82 | 1014.5 |
| 20260904074537 | 82 | 209 | 0.9 | 0.9 | 0.00 | 0.00 | 0.00 | 82 | 1014.8 |
| 20260904074032 | 82 | 206 | 0.9 | 0.9 | 0.00 | 0.00 | 0.00 | 82 | 1014.5 |
| 20260904073527 | 82 | 213 | 0.9 | 1.7 | 0.00 | 0.00 | 0.00 | 82 | 1014.5 |
| 20260904073023 | 82 | 244 | 0.9 | 1.7 | 0.00 | 0.00 | 0.00 | 81 | 1014.8 |
| 20260904072519 | 82 | 223 | 0.9 | 0.9 | 0.00 | 0.00 | 0.00 | 81 | 1014.8 |
| 20260904072014 | 82 | 185 | 0.9 | 1.7 | 0.00 | 0.00 | 0.00 | 81 | 1015.2 |
| 20260904071509 | 82 | 203 | 3.5 | 4.3 | 0.00 | 0.00 | 0.00 | 81 | 1014.5 |
| 20260904071004 | 82 | 159 | 1.7 | 1.7 | 0.00 | 0.00 | 0.00 | 81 | 1014.8 |
| 20260904070503 | 82 | 183 | 2.6 | 2.6 | 0.00 | 0.00 | 0.00 | 81 | 1015.2 |
| 20260904065957 | 82 | 209 | 1.7 | 4.3 | 0.00 | 0.00 | 0.00 | 80 | 1014.8 |
| 20260904065453 | 82 | 218 | 2.6 | 2.6 | 0.00 | 0.00 | 0.00 | 80 | 1014.8 |
| 20260904064949 | 82 | 211 | 2.6 | 4.3 | 0.00 | 0.00 | 0.00 | 80 | 1015.2 |
| 20260904064445 | 82 | 237 | 0.9 | 0.9 | 0.00 | 0.00 | 0.00 | 80 | 1015.2 |
| 20260904063939 | 82 | 257 | 0.9 | 1.7 | 0.00 | 0.00 | 0.00 | 80 | 1015.2 |
| 20260904063436 | 82 | 223 | 0.9 | 0.9 | 0.00 | 0.00 | 0.00 | 80 | 1014.8 |
| 20260904062930 | 82 | 192 | 0.9 | 0.9 | 0.00 | 0.00 | 0.00 | 79 | 1014.8 |
| 20260904062427 | 82 | 210 | 0.9 | 0.9 | 0.00 | 0.00 | 0.00 | 79 | 1014.8 |
| 20260904061922 | 82 | 108 | 0.9 | 1.7 | 0.00 | 0.00 | 0.00 | 79 | 1015.2 |
| 20260904061419 | 82 | 240 | 1.7 | 1.7 | 0.00 | 0.00 | 0.00 | 79 | 1015.2 |
| 20260904060914 | 82 | 155 | 2.6 | 5.2 | 0.00 | 0.00 | 0.00 | 79 | 1014.8 |
| 20260904060410 | 82 | 233 | 1.7 | 1.7 | 0.00 | 0.00 | 0.00 | 79 | 1015.2 |
| 20260904055905 | 82 | 216 | 1.7 | 4.3 | 0.00 | 0.00 | 0.00 | 79 | 1015.2 |
| 20260904055401 | 82 | 151 | 1.7 | 2.6 | 0.00 | 0.00 | 0.00 | 79 | 1014.8 |
| 20260904054856 | 82 | 132 | 1.7 | 1.7 | 0.00 | 0.00 | 0.00 | 79 | 1014.8 |
| 20260904054352 | 82 | 249 | 2.6 | 2.6 | 0.00 | 0.00 | 0.00 | 79 | 1014.8 |
| 20260904053847 | 82 | 144 | 1.7 | 2.6 | 0.00 | 0.00 | 0.00 | 79 | 1015.2 |
| 20260904053347 | 82 | 198 | 0.9 | 1.7 | 0.00 | 0.00 | 0.00 | 79 | 1014.8 |
| 20260904052843 | 82 | 179 | 1.7 | 1.7 | 0.00 | 0.00 | 0.00 | 79 | 1014.8 |
| 20260904052339 | 82 | 241 | 3.5 | 5.2 | 0.00 | 0.00 | 0.00 | 79 | 1014.8 |
| 20260904051835 | 82 | 223 | 1.7 | 1.7 | 0.00 | 0.00 | 0.00 | 79 | 1014.8 |
| 20260904051331 | 82 | 223 | 2.6 | 5.2 | 0.00 | 0.00 | 0.00 | 79 | 1014.8 |
| 20260904050831 | 82 | 242 | 2.6 | 2.6 | 0.00 | 0.00 | 0.00 | 79 | 1014.8 |
| 20260904050328 | 82 | 225 | 1.7 | 1.7 | 0.00 | 0.00 | 0.00 | 79 | 1014.8 |
| 20260904045822 | 82 | 167 | 2.6 | 2.6 | 0.00 | 0.00 | 0.00 | 79 | 1014.8 |
| 20260904045317 | 82 | 253 | 0.0 | 0.9 | 0.00 | 0.00 | 0.00 | 79 | 1015.2 |
| 20260904044811 | 82 | 216 | 0.9 | 1.7 | 0.00 | 0.00 | 0.00 | 79 | 1014.8 |
| 20260904044308 | 82 | 218 | 1.7 | 4.3 | 0.00 | 0.00 | 0.00 | 79 | 1014.8 |
| 20260904043804 | 82 | 185 | 0.9 | 0.9 | 0.00 | 0.00 | 0.00 | 79 | 1014.8 |
| 20260904043300 | 82 | 146 | 1.7 | 2.6 | 0.00 | 0.00 | 0.00 | 79 | 1014.8 |
| 20260904042755 | 82 | 173 | 0.9 | 1.7 | 0.00 | 0.00 | 0.00 | 79 | 1014.5 |
| 20260904042251 | 82 | 206 | 2.6 | 2.6 | 0.00 | 0.00 | 0.00 | 79 | 1014.8 |
| 20260904041751 | 82 | 149 | 1.7 | 1.7 | 0.00 | 0.00 | 0.00 | 79 | 1014.8 |
| 20260904041247 | 82 | 197 | 1.7 | 1.7 | 0.00 | 0.00 | 0.00 | 79 | 1014.5 |
| 20260904040743 | 82 | 102 | 0.9 | 1.7 | 0.00 | 0.00 | 0.00 | 79 | 1014.8 |
| 20260904040238 | 81 | 149 | 2.6 | 2.6 | 0.00 | 0.00 | 0.00 | 79 | 1014.8 |
| 20260904035734 | 82 | 209 | 1.7 | 1.7 | 0.00 | 0.00 | 0.00 | 79 | 1014.5 |
| 20260904035230 | 82 | 149 | 2.6 | 2.6 | 0.00 | 0.00 | 0.00 | 78 | 1014.8 |
| 20260904034728 | 82 | 199 | 1.7 | 2.6 | 0.00 | 0.00 | 0.00 | 78 | 1014.8 |
| 20260904034224 | 81 | 252 | 1.7 | 2.6 | 0.00 | 0.00 | 0.00 | 78 | 1014.5 |
| 20260904033720 | 82 | 131 | 5.2 | 6.1 | 0.00 | 0.00 | 0.00 | 78 | 1014.8 |
| 20260904033217 | 82 | 147 | 2.6 | 2.6 | 0.00 | 0.00 | 0.00 | 78 | 1014.8 |
| 20260904032713 | 82 | 186 | 4.3 | 5.2 | 0.00 | 0.00 | 0.00 | 78 | 1014.5 |
| 20260904032212 | 82 | 104 | 1.7 | 2.6 | 0.00 | 0.00 | 0.00 | 78 | 1014.5 |
| 20260904031712 | 82 | 147 | 1.7 | 1.7 | 0.00 | 0.00 | 0.00 | 78 | 1014.5 |
| 20260904031207 | 82 | 175 | 2.6 | 4.3 | 0.00 | 0.00 | 0.00 | 77 | 1014.5 |
| 20260904030703 | 82 | 139 | 5.2 | 6.1 | 0.00 | 0.00 | 0.00 | 77 | 1014.5 |
| 20260904030157 | 82 | 169 | 3.5 | 6.1 | 0.00 | 0.00 | 0.00 | 77 | 1014.5 |
| 20260904025654 | 82 | 145 | 2.6 | 5.2 | 0.00 | 0.00 | 0.00 | 77 | 1014.5 |
| 20260904025149 | 82 | 117 | 1.7 | 2.6 | 0.00 | 0.00 | 0.00 | 76 | 1014.1 |
| 20260904024644 | 82 | 157 | 7.8 | 8.7 | 0.00 | 0.00 | 0.00 | 76 | 1014.1 |
| 20260904024140 | 82 | 121 | 2.6 | 6.1 | 0.00 | 0.00 | 0.00 | 75 | 1014.1 |
| 20260904023636 | 82 | 199 | 3.5 | 6.1 | 0.00 | 0.00 | 0.00 | 75 | 1014.1 |
| 20260904023132 | 83 | 120 | 4.3 | 6.1 | 0.00 | 0.00 | 0.00 | 74 | 1014.5 |
| 20260904022631 | 83 | 169 | 0.9 | 1.7 | 0.00 | 0.00 | 0.00 | 74 | 1014.1 |
| 20260904022128 | 83 | 275 | 1.7 | 2.6 | 0.00 | 0.00 | 0.00 | 73 | 1014.1 |
| 20260904021624 | 83 | 139 | 2.6 | 2.6 | 0.00 | 0.00 | 0.00 | 73 | 1013.8 |
| 20260904021119 | 83 | 187 | 3.5 | 4.3 | 0.00 | 0.00 | 0.00 | 73 | 1013.8 |
| 20260904020614 | 83 | 181 | 3.5 | 6.1 | 0.00 | 0.00 | 0.00 | 72 | 1013.5 |
| 20260904015557 | 84 | 208 | 3.5 | 5.2 | 0.00 | 0.00 | 0.00 | 71 | 1013.5 |
| 20260904015055 | 84 | 146 | 3.5 | 5.2 | 0.00 | 0.00 | 0.00 | 71 | 1013.5 |
| 20260904014550 | 84 | 143 | 5.2 | 6.1 | 0.00 | 0.00 | 0.00 | 70 | 1013.5 |
| 20260904014045 | 84 | 150 | 2.6 | 4.3 | 0.00 | 0.00 | 0.00 | 70 | 1013.1 |
| 20260904013542 | 84 | 165 | 5.2 | 7.8 | 0.00 | 0.00 | 0.00 | 68 | 1013.1 |
| 20260904013033 | 84 | 239 | 1.7 | 2.6 | 0.00 | 0.00 | 0.00 | 68 | 1012.7 |
| 20260904012532 | 85 | 101 | 7.0 | 8.7 | 0.00 | 0.00 | 0.00 | 68 | 1013.1 |
| 20260904012026 | 85 | 140 | 5.2 | 7.0 | 0.00 | 0.00 | 0.00 | 67 | 1013.1 |
| 20260904011526 | 85 | 166 | 3.5 | 5.2 | 0.00 | 0.00 | 0.00 | 67 | 1013.1 |
| 20260904011021 | 85 | 48 | 1.7 | 2.6 | 0.00 | 0.00 | 0.00 | 66 | 1013.1 |
| 20260904010518 | 86 | 132 | 1.7 | 2.6 | 0.00 | 0.00 | 0.00 | 65 | 1013.1 |
| 20260904010013 | 86 | 194 | 6.1 | 9.6 | 0.00 | 0.00 | 0.00 | 64 | 1013.5 |
| 20260904005508 | 86 | 173 | 4.3 | 5.2 | 0.00 | 0.00 | 0.00 | 64 | 1013.1 |
| 20260904005003 | 86 | 164 | 4.3 | 6.1 | 0.00 | 0.00 | 0.00 | 64 | 1013.1 |
| 20260904004459 | 86 | 126 | 1.7 | 2.6 | 0.00 | 0.00 | 0.00 | 64 | 1013.1 |
| 20260904003959 | 86 | 139 | 6.1 | 7.0 | 0.00 | 0.00 | 0.00 | 64 | 1013.1 |
| 20260904003455 | 87 | 165 | 0.9 | 1.7 | 0.00 | 0.00 | 0.00 | 64 | 1013.1 |
| 20260904002950 | 87 | 153 | 2.6 | 5.2 | 0.00 | 0.00 | 0.00 | 64 | 1013.1 |
| 20260904002446 | 87 | 182 | 6.1 | 7.0 | 0.00 | 0.00 | 0.00 | 64 | 1013.1 |
| 20260904001945 | 87 | 183 | 6.1 | 7.0 | 0.00 | 0.00 | 0.00 | 63 | 1013.1 |
| 20260904001441 | 87 | 118 | 4.3 | 6.1 | 0.00 | 0.00 | 0.00 | 63 | 1013.1 |
| 20260904000935 | 87 | 171 | 6.1 | 7.8 | 0.00 | 0.00 | 0.00 | 64 | 1013.1 |
| 20260904000435 | 87 | 143 | 4.3 | 5.2 | 0.00 | 0.00 | 0.00 | 64 | 1013.1 |
| 20260903235930 | 88 | 160 | 4.3 | 7.0 | 0.00 | 0.00 | 0.00 | 63 | 1013.1 |
| 20260903235426 | 88 | 177 | 2.6 | 5.2 | 0.00 | 0.00 | 0.00 | 62 | 1013.1 |
| 20260903234926 | 88 | 85 | 7.0 | 7.8 | 0.00 | 0.00 | 0.00 | 62 | 1012.7 |
| 20260903234422 | 89 | 119 | 3.5 | 5.2 | 0.00 | 0.00 | 0.00 | 62 | 1012.7 |
| 20260903233918 | 89 | 148 | 3.5 | 6.1 | 0.00 | 0.00 | 0.00 | 62 | 1012.7 |
| 20260903233413 | 89 | 181 | 4.3 | 5.2 | 0.00 | 0.00 | 0.00 | 62 | 1012.7 |
| 20260903232908 | 89 | 115 | 2.6 | 5.2 | 0.00 | 0.00 | 0.00 | 62 | 1012.7 |
| 20260903232403 | 89 | 121 | 4.3 | 7.0 | 0.00 | 0.00 | 0.00 | 61 | 1012.7 |
| 20260903231902 | 89 | 2 | 2.6 | 2.6 | 0.00 | 0.00 | 0.00 | 61 | 1012.7 |
| 20260903231357 | 89 | 163 | 4.3 | 6.1 | 0.00 | 0.00 | 0.00 | 62 | 1012.4 |
| 20260903230853 | 90 | 146 | 12.2 | 14.8 | 0.00 | 0.00 | 0.00 | 61 | 1012.7 |
| 20260903230348 | 90 | 135 | 0.9 | 1.7 | 0.00 | 0.00 | 0.00 | 61 | 1012.4 |
| 20260903225844 | 90 | 145 | 5.2 | 7.0 | 0.00 | 0.00 | 0.00 | 62 | 1012.4 |
| 20260903225340 | 90 | 153 | 1.7 | 2.6 | 0.00 | 0.00 | 0.00 | 62 | 1012.4 |
| 20260903224836 | 89 | 242 | 4.3 | 6.1 | 0.00 | 0.00 | 0.00 | 63 | 1012.4 |
| 20260903224332 | 90 | 121 | 9.6 | 12.2 | 0.00 | 0.00 | 0.00 | 63 | 1012.4 |
| 20260903223828 | 91 | 137 | 7.0 | 9.6 | 0.00 | 0.00 | 0.00 | 61 | 1012.4 |
| 20260903223326 | 92 | 180 | 7.8 | 9.6 | 0.00 | 0.00 | 0.00 | 60 | 1012.0 |
| 20260903222821 | 94 | 180 | 4.3 | 6.1 | 0.00 | 0.00 | 0.00 | 56 | 1012.4 |
| 20260903222321 | 96 | 133 | 7.0 | 11.3 | 0.00 | 0.00 | 0.00 | 48 | 1012.0 |
| 20260903221815 | 97 | 111 | 5.2 | 6.1 | 0.00 | 0.00 | 0.00 | 46 | 1011.7 |
| 20260903221314 | 96 | 127 | 2.6 | 4.3 | 0.00 | 0.00 | 0.00 | 47 | 1011.7 |
| 20260903220812 | 96 | 92 | 7.8 | 12.2 | 0.00 | 0.00 | 0.00 | 48 | 1011.7 |
| 20260903220307 | 96 | 204 | 8.7 | 11.3 | 0.00 | 0.00 | 0.00 | 47 | 1012.0 |
| 20260903215805 | 96 | 106 | 6.1 | 7.0 | 0.00 | 0.00 | 0.00 | 47 | 1011.7 |
| 20260903215305 | 97 | 124 | 6.1 | 8.7 | 0.00 | 0.00 | 0.00 | 46 | 1011.7 |
| 20260903214759 | 97 | 206 | 1.7 | 1.7 | 0.00 | 0.00 | 0.00 | 46 | 1011.7 |
| 20260903214250 | 97 | 155 | 6.1 | 7.0 | 0.00 | 0.00 | 0.00 | 46 | 1012.0 |
| 20260903213744 | 98 | 77 | 7.8 | 9.6 | 0.00 | 0.00 | 0.00 | 45 | 1011.7 |
| 20260903213240 | 97 | 172 | 3.5 | 5.2 | 0.00 | 0.00 | 0.00 | 45 | 1011.7 |
| 20260903212736 | 97 | 136 | 6.1 | 7.0 | 0.00 | 0.00 | 0.00 | 45 | 1012.0 |
| 20260903212233 | 98 | 59 | 1.7 | 2.6 | 0.00 | 0.00 | 0.00 | 45 | 1012.0 |
| 20260903211731 | 99 | 171 | 4.3 | 5.2 | 0.00 | 0.00 | 0.00 | 45 | 1011.7 |
| 20260903211228 | 99 | 90 | 2.6 | 2.6 | 0.00 | 0.00 | 0.00 | 44 | 1012.0 |
| 20260903210724 | 101 | 138 | 3.5 | 6.1 | 0.00 | 0.00 | 0.00 | 43 | 1012.0 |
| 20260903210219 | 100 | 140 | 4.3 | 5.2 | 0.00 | 0.00 | 0.00 | 43 | 1012.0 |
| 20260903205718 | 101 | 151 | 2.6 | 2.6 | 0.00 | 0.00 | 0.00 | 43 | 1012.4 |
| 20260903205217 | 99 | 302 | 0.0 | 0.9 | 0.00 | 0.00 | 0.00 | 43 | 1012.0 |
| 20260903204713 | 99 | 171 | 2.6 | 2.6 | 0.00 | 0.00 | 0.00 | 43 | 1012.0 |
| 20260903204210 | 99 | 140 | 3.5 | 5.2 | 0.00 | 0.00 | 0.00 | 44 | 1012.4 |
| 20260903203705 | 100 | 37 | 0.0 | 0.9 | 0.00 | 0.00 | 0.00 | 42 | 1012.4 |
| 20260903203200 | 100 | 253 | 0.0 | 0.9 | 0.00 | 0.00 | 0.00 | 42 | 1012.4 |
| 20260903202654 | 99 | 175 | 0.9 | 1.7 | 0.00 | 0.00 | 0.00 | 44 | 1012.7 |
| 20260903202151 | 99 | 156 | 1.7 | 1.7 | 0.00 | 0.00 | 0.00 | 45 | 1012.7 |
| 20260903201649 | 99 | 186 | 2.6 | 2.6 | 0.00 | 0.00 | 0.00 | 44 | 1012.7 |
| 20260903201144 | 100 | 122 | 3.5 | 5.2 | 0.00 | 0.00 | 0.00 | 44 | 1012.7 |
| 20260903200639 | 99 | 181 | 1.7 | 2.6 | 0.00 | 0.00 | 0.00 | 45 | 1013.1 |
| 20260903200134 | 99 | 265 | 2.6 | 2.6 | 0.00 | 0.00 | 0.00 | 45 | 1012.7 |
| 20260903195630 | 99 | 113 | 0.9 | 1.7 | 0.00 | 0.00 | 0.00 | 45 | 1013.1 |
| 20260903195126 | 100 | 207 | 1.7 | 1.7 | 0.00 | 0.00 | 0.00 | 44 | 1013.1 |
| 20260903194621 | 99 | 233 | 1.7 | 2.6 | 0.00 | 0.00 | 0.00 | 45 | 1012.7 |
| 20260903194121 | 100 | 340 | 0.9 | 0.9 | 0.00 | 0.00 | 0.00 | 44 | 1013.1 |
| 20260903193617 | 99 | 170 | 1.7 | 1.7 | 0.00 | 0.00 | 0.00 | 44 | 1013.1 |
| 20260903193112 | 99 | 160 | 1.7 | 1.7 | 0.00 | 0.00 | 0.00 | 45 | 1013.1 |
| 20260903192608 | 100 | 113 | 3.5 | 5.2 | 0.00 | 0.00 | 0.00 | 44 | 1013.5 |
| 20260903192103 | 100 | 246 | 0.0 | 0.0 | 0.00 | 0.00 | 0.00 | 45 | 1013.5 |
| 20260903191559 | 102 | 172 | 1.7 | 4.3 | 0.00 | 0.00 | 0.00 | 43 | 1013.5 |
| 20260903191054 | 101 | 223 | 1.7 | 2.6 | 0.00 | 0.00 | 0.00 | 44 | 1013.5 |
| 20260903190554 | 99 | 276 | 0.0 | 0.9 | 0.00 | 0.00 | 0.00 | 46 | 1013.5 |
| 20260903190053 | 100 | 149 | 2.6 | 7.0 | 0.00 | 0.00 | 0.00 | 45 | 1013.5 |
| 20260903185549 | 98 | 193 | 2.6 | 2.6 | 0.00 | 0.00 | 0.00 | 47 | 1013.8 |
| 20260903185044 | 98 | 152 | 5.2 | 7.0 | 0.00 | 0.00 | 0.00 | 47 | 1013.8 |
| 20260903184540 | 99 | 174 | 1.7 | 1.7 | 0.00 | 0.00 | 0.00 | 47 | 1013.8 |